Voltar ao catálogo

STARLINK-34538

AtivoComunicaçõesVLEO
NORAD 64689·PAYLOAD·🇺🇸 United States

Lançado Jun 28, 2025 de Cape Canaveral Space Force Station

Loading…

Próximas Passagens (próximas 24 horas)

TLE

AtualizadoSource: CelesTrak SupGP

Época: Sep 15, 2026, 03:58 UTC

1 64689C 25139AB  26258.16576389  .00043901  00000+0  12964-2 0  2589
2 64689  53.1594 322.7214 0001278  86.6535 257.0196 15.34385029    15

Acompanhe STARLINK-34538 em tempo real com AllMySat

Download on the App Store